Home   Weather   Oulu   Past weeks

Flag for Finland Past Weather in Oulu, Finland — Yesterday and Last 2 Weeks

Now
45 °F

Sunny.


Feels Like: 40 °F
Forecast: 40 / 50 °F
Wind: 9 mph from Southwest

Location: Oulu Airport

Current Time: Oct 1, 2016 at 10:03:24 AM

Latest Report: Oct 1, 2016 at 9:20 AM


Visibility: 10 mi

Pressure: 29.15 "Hg

Humidity: 87%

Dew Point: 41 °F

Location of OuluLocation

Past Weather in Oulu — Graph

°F

Oulu Temperature Yesterday

Maximum temperature yesterday: 54 °F (at 7:20 PM)
Minimum temperature yesterday: 50 °F (at 3:50 AM)
Average temperature yesterday: 52 °F

High & Low Weather Summary for the Past Weeks

 TemperatureHumidityPressure
High61 °F (Sep 27, 1:20 PM)100% (Sep 16, 10:20 PM)30.33 "Hg (Sep 16, 10:20 PM)
Low30 °F (Sep 17, 5:20 AM)54% (Sep 16, 3:20 PM)28.74 "Hg (Sep 30, 2:20 AM)
Average49 °F84%29.96 "Hg
* Reported Sep 16 8:20 AM — Oct 1 8:50 AM, Oulu, Weather by CustomWeather, © 2016

Note: Actual official high and low records may vary slightly from our data, if they occured in-between our weather recording intervals... More about our weather records

Advertising

Oulu Weather History for the Previous 24 Hours

Scroll right to see more
 ConditionsComfort  
Time TempWeatherWind HumidityBarometerVisibility
8:50 AM
Sat, Oct 1
45 °FPassing clouds.9 mph87%29.12 "HgN/A
8:20 AM43 °FPassing clouds.10 mph93%29.12 "HgN/A
7:50 AM43 °FPassing clouds.8 mph93%29.12 "HgN/A
7:20 AM43 °FClear.9 mph93%29.12 "Hg10 mi
6:50 AM43 °FPassing clouds.9 mph93%29.12 "HgN/A
6:20 AM43 °FPassing clouds.8 mph93%29.12 "HgN/A
5:50 AM43 °FPassing clouds.7 mph87%29.09 "HgN/A
5:20 AM43 °FPassing clouds.6 mph93%29.09 "HgN/A
4:50 AM43 °FPassing clouds.7 mph93%29.09 "HgN/A
4:20 AM46 °FPassing clouds.6 mph82%29.09 "HgN/A
3:50 AM46 °FClear.7 mph82%29.09 "Hg10 mi
3:20 AM48 °FClear.8 mph76%29.09 "Hg10 mi
2:50 AM48 °FPassing clouds.9 mph76%29.09 "HgN/A
2:20 AM48 °FClear.10 mph76%29.09 "Hg10 mi
1:50 AM48 °FClear.10 mph76%29.09 "Hg10 mi
1:20 AM50 °FClear.12 mph71%29.06 "Hg10 mi
12:50 AM50 °FClear.13 mph71%29.06 "Hg10 mi
12:20 AM50 °FClear.15 mph71%29.06 "Hg10 mi
11:50 PM
Fri, Sep 30
50 °FClear.16 mph71%29.06 "Hg10 mi
11:20 PM52 °FPassing clouds.18 mph67%29.03 "HgN/A
10:50 PM52 °FClear.17 mph67%29.03 "Hg10 mi
10:20 PM52 °FPartly cloudy.18 mph67%29.03 "HgN/A
9:50 PM52 °FMostly cloudy.20 mph72%29.00 "HgN/A
9:20 PM52 °FPassing clouds.22 mph62%29.00 "HgN/A
8:50 PM52 °FOvercast.16 mph72%29.00 "HgN/A
8:20 PM52 °FOvercast.17 mph67%28.97 "HgN/A
7:50 PM52 °FOvercast.17 mph72%28.97 "HgN/A
7:20 PM54 °FMostly cloudy.18 mph67%28.94 "HgN/A
6:50 PM52 °FMostly cloudy.15 mph77%28.94 "HgN/A
6:20 PM52 °FOvercast.15 mph72%28.94 "HgN/A
5:50 PM52 °FOvercast.17 mph72%28.91 "HgN/A
5:20 PM52 °FOvercast.16 mph72%28.91 "HgN/A
4:50 PM52 °FPartly sunny.17 mph72%28.88 "HgN/A
4:20 PM52 °FPartly sunny.22 mph72%28.88 "HgN/A
3:50 PM52 °FPartly sunny.20 mph72%28.85 "HgN/A
3:20 PM52 °FBroken clouds.15 mph77%28.85 "HgN/A
2:50 PM52 °FBroken clouds.15 mph77%28.82 "HgN/A
2:20 PM52 °FMostly cloudy.15 mph77%28.82 "HgN/A
1:50 PM52 °FCloudy.13 mph77%28.82 "HgN/A
1:20 PM52 °FPartly sunny.12 mph77%28.80 "HgN/A
12:50 PM52 °FPartly sunny.13 mph77%28.80 "HgN/A
12:20 PM52 °FPartly sunny.15 mph77%28.80 "HgN/A
11:50 AM52 °FBroken clouds.9 mph88%28.77 "HgN/A
11:20 AM52 °FMostly cloudy.10 mph82%28.77 "HgN/A
10:50 AM52 °FOvercast.10 mph82%28.77 "HgN/A
10:20 AM50 °FLight rain. More clouds than sun.10 mph94%28.77 "HgN/A
Weather by CustomWeather, © 2016

See weather overviewHow to use our weather pages